HORIZONS-3E

Last updated on Mon Nov 03 2025 00:02:59 GMT+0000 (Coordinated Universal Time)

1 43633U 18074B 25306.39141980 -.00000019 00000+0 00000+0 0 9999 2 43633 0.0123 222.5865 0001232 74.9056 54.3697 1.00268421 26068
UTC large
Height (km)
Speed (km/s)
/
Latitude / Longitude
Inclination (degrees)
Orbital Period (minutes)
Azimuth
Elevation
Range (km)
Doppler Factor

Next 0 passes for location: London (51.5072 / 0.1276)

Sorry there are no passes over London.